Regional Weather Roundup
Issued by NWS

Home | Current Version | Previous Version | Graphics & Text | Print | Product List | Glossary On
Versions: 1 2 3 4 5 6 7 8 9 10 11 12 13 14 15 16 17 18 19 20 21 22 23 24 25 26 27 28 29 30 31 32 33 34 35 36 37 38 39 40 41 42 43 44 45 46 47 48 49 50
214
ASUS43 KDMX 040903
RWRIA

WEATHER ROUNDUP FOR IOWA
NATIONAL WEATHER SERVICE DES MOINES IA
400 AM CDT WED MAY 04 2016

NOTE: "FAIR" INDICATES FEW OR NO CLOUDS BELOW 12,000 FEET WITH NO
SIGNIFICANT WEATHER AND/OR OBSTRUCTIONS TO VISIBILITY.

* - THESE STATIONS ARE NOT NWS STATIONS...THUS NOT UNDER NWS
QUALITY CONTROL.  THEY ALSO DO NOT REPORT WEATHER SUCH
AS PRECIPITATION OR FOG.

IAZ001>003-012>014-020>022-031>034-043>046-041000-
   NORTHWEST IOWA

CITY           SKY/WX    TMP DP  RH WIND       PRES   REMARKS
CARROLL *      CLEAR     48  37  66 NW14      29.87R
CHEROKEE *     CLEAR     44  35  71 N7        29.92R
DENISON *      CLEAR     48  36  61 N9        29.88R
LE MARS *      CLEAR     48  34  57 N10       29.96R
ORANGE CITY *  CLEAR     46  34  61 N13       29.94R
SHELDON *      CLEAR     41  34  75 N9        29.94R
SIOUX CITY     CLEAR     51  32  48 N10       29.95R
SPENCER        CLEAR     47  33  58 N14       29.92R
STORM LAKE *   CLEAR     48  34  57 N15       29.91R
$$

IAZ055>058-069>071-079>083-090>094-041000-
   SOUTHWEST IOWA

CITY           SKY/WX    TMP DP  RH WIND       PRES   REMARKS
ATLANTIC *     CLEAR     50  36  57 N12       29.87R
AUDUBON *      CLEAR     48  37  66 NW10      29.87R
CLARINDA *       N/A    N/A N/A N/A MISG        N/A
COUNCIL BLFS * CLEAR     52  37  58 NW9       29.91R
CRESTON *      CLEAR     50  37  62 NW15      29.84R
HARLAN  *      CLEAR     50  36  57 N12       29.92R
LAMONI         CLEAR     52  41  66 NW13      29.80R
RED OAK *      CLEAR     52  39  62 NW14      29.88R
SHENANDOAH *   CLEAR     54  41  62 NW9       29.89R
$$

IAZ047>049-059>061-072>074-084-041000-
   CENTRAL IOWA

CITY           SKY/WX    TMP DP  RH WIND       PRES   REMARKS
AMES           CLEAR     50  35  56 N14       29.82R
ANKENY *       CLEAR     52  36  54 N13       29.80R
BOONE *        CLEAR     48  36  61 N14       29.82R
CHARITON *     CLEAR     54  39  58 NW14      29.78R
DES MOINES     PTCLDY    55  32  41 N15       29.80R
GRINNELL*      CLEAR     50  39  66 N13       29.77R
KNOXVILLE *    CLEAR     54  36  50 N13       29.76R
MARSHALLTOWN   CLEAR     48  40  73 N14       29.79R
NEWTON *       CLEAR     50  37  62 N13       29.77R
PELLA *        CLEAR     52  37  56 N10       29.78R
PERRY *          N/A     50  36  57 NW15      29.84R
$$

IAZ004>006-015-016-023>025-035-036-041000-
   NORTH CENTRAL IOWA

CITY           SKY/WX    TMP DP  RH WIND       PRES   REMARKS
ALGONA *       CLEAR     48  34  57 N13       29.88R
CLARION *      CLEAR     46  34  61 N12       29.85R
ESTHERVILLE    CLEAR     45  34  65 N14       29.90R
FORT DODGE *   CLEAR     48  32  53 N8        29.87R
MASON CITY     CLEAR     45  36  70 N12       29.87R
FOREST CITY *    N/A     45  32  61 N9        29.87R
WEBSTER CITY * CLEAR     48  34  57 N15       29.83R
IOWA FALLS *     N/A     48  37  66 N9        29.82R
$$

IAZ007>011-017>019-026>030-037>042-050>054-066-041000-
   NORTHEAST IOWA

CITY           SKY/WX    TMP DP  RH WIND       PRES   REMARKS
CEDAR RAPIDS   CLEAR     44  44 100 N7        29.73R
CHARLES CITY * CLEAR     46  41  81 N9        29.83R
CLINTON *      FOG       43  43 100 N9        29.72R VSB 1/4
DECORAH *      CLEAR     48  41  76 N10       29.80R
DUBUQUE        PTCLDY    44  43  96 N6        29.74R
MONTICELLO *   CLEAR     45  45 100 N5        29.74R
OELWEIN *      CLEAR     48  43  81 N13       29.79R
WATERLOO       CLEAR     49  41  74 N13       29.79R
$$

IAZ064-065-067-068-078-041000-
   EAST CENTRAL IOWA

CITY           SKY/WX    TMP DP  RH WIND       PRES   REMARKS
DAVENPORT      CLEAR     45  43  93 NW7       29.72R
IOWA CITY      CLEAR     48  46  93 CALM      29.74R
MT. PLEASANT * CLEAR     54  46  76 NW5       29.70R
MUSCATINE *    CLEAR     46  45  93 NE5       29.72R
QUAD CITIES    FOG       47  44  90 CALM      29.70R VSB 1/4
$$

IAZ062-063-075>077-085>089-095>099-041000-
   SOUTHEAST IOWA

CITY           SKY/WX    TMP DP  RH WIND       PRES   REMARKS
BURLINGTON     CLEAR     51  47  86 NE3       29.69S
FAIRFIELD *    CLEAR     52  43  71 NW12      29.71R
FORT MADISON * CLEAR     55  46  71 NW9       29.69S
KEOKUK *       CLEAR     57  45  62 W9G16     29.68S
OSKALOOSA *      N/A     52  39  62 N13       29.74R
OTTUMWA        CLEAR     51  39  63 N15       29.73R
WASHINGTON *   CLEAR     48  46  93 N8        29.73R
$$

ABBREVIATIONS USED IN REMARKS
   TC - TEMPERATURES IN CELSIUS
  WCI - WIND CHILL INDEX
   HX - HEAT INDEX
  VSB - VISIBILITY
$$





USA.gov is the U.S. government's official web portal to all federal, state and local government web resources and services.